FW8483 Weather Reports


time (UTC)temp
C
wind
direction
speed
KPH
gust
KPH
rain 1hr
cm
rain 24hr
cm
rain mn
cm
humidity
%
barometer
mb
20260509183507 18 105 4.8 6.4 0.51 5.18 2.57 96 1014.4
20260509183018 18 91 3.2 6.4 0.56 5.18 2.57 96 1014.5
20260509182504 18 117 3.2 4.8 0.58 5.16 2.54 96 1014.7
20260509182012 18 124 0.0 8.0 0.58 5.13 2.51 96 1015.0
20260509181519 18 158 1.6 9.7 0.53 5.08 2.46 96 1015.2
20260509181007 18 169 4.8 9.7 0.56 5.05 2.44 96 1015.3
20260509180505 18 152 3.2 8.0 0.53 5.00 2.39 96 1015.6
20260509180023 18 227 0.0 3.2 0.48 4.93 2.31 96 1015.7
20260509175504 17 188 1.6 4.8 0.48 4.88 2.26 96 1015.8
20260509175003 17 200 0.0 4.8 0.46 4.80 2.18 96 1015.8
20260509174506 17 180 0.0 3.2 0.46 4.75 2.13 96 1015.6
20260509174004 17 273 0.0 1.6 0.51 4.72 2.11 96 1015.3
20260509173503 17 273 0.0 3.2 0.64 4.67 2.06 96 1015.3
20260509173012 17 190 0.0 6.4 0.84 4.62 2.01 96 1015.8
20260509172505 17 197 3.2 6.4 0.97 4.57 1.96 96 1015.9
20260509172003 17 185 0.0 3.2 0.97 4.55 1.93 96 1015.8
20260509171517 17 234 0.0 3.2 0.97 4.55 1.93 96 1015.5
20260509171006 17 249 0.0 3.2 0.91 4.50 1.88 96 1015.4
20260509170507 17 248 1.6 4.8 0.89 4.47 1.85 96 1015.5
20260509170024 17 288 0.0 4.8 0.86 4.45 1.83 96 1015.4
20260509165508 17 9 1.6 4.8 0.84 4.39 1.78 96 1015.1
20260509165008 17 9 0.0 8.0 0.89 4.34 1.73 95 1015.1
20260509164505 17 309 0.0 8.0 0.89 4.29 1.68 95 1015.4
20260509164002 17 32 3.2 8.0 0.91 4.22 1.60 95 1015.3
20260509163506 18 324 3.2 6.4 0.84 4.04 1.42 95 1015.3
20260509163009 18 47 1.6 6.4 0.79 3.78 1.17 95 1015.6
20260509162505 18 155 0.0 9.7 0.64 3.61 0.99 95 1015.8
20260509162002 18 81 0.0 12.9 0.61 3.58 0.97 95 1015.4
20260509161514 18 35 4.8 12.9 0.64 3.58 0.97 95 1015.0
20260509161002 18 21 4.8 8.0 0.71 3.58 0.97 95 1015.0
20260509160507 18 352 4.8 8.0 0.74 3.58 0.97 95 1015.0
20260509160020 18 360 4.8 8.0 0.76 3.58 0.97 95 1015.2
20260509155506 18 36 3.2 8.0 0.74 3.56 0.94 95 1015.2
20260509155007 18 360 1.6 11.3 0.66 3.45 0.84 95 1015.4
20260509154524 18 49 4.8 11.3 0.61 3.40 0.79 95 1015.2
20260509154012 18 344 1.6 4.8 0.53 3.30 0.69 95 1015.3
20260509153505 18 26 3.2 6.4 0.43 3.20 0.58 95 1015.1
20260509153011 18 70 3.2 14.5 0.25 2.97 0.38 95 1015.1
20260509152504 18 360 1.6 14.5 0.25 2.95 0.36 95 1015.0
20260509152004 18 93 11.3 14.5 0.28 2.95 0.36 95 1014.7
20260509151512 18 68 0.0 4.8 0.25 2.95 0.33 95 1015.1
20260509151003 18 66 1.6 4.8 0.18 2.87 0.25 94 1015.0
20260509150509 18 55 0.0 8.0 0.20 2.84 0.23 94 1014.9
20260509150017 18 55 3.2 8.0 0.18 2.82 0.20 94 1014.8
20260509145507 18 55 3.2 9.7 0.20 2.82 0.20 94 1014.7
20260509145007 18 47 4.8 9.7 0.18 2.79 0.18 94 1014.6
20260509144532 18 54 4.8 19.3 0.18 2.79 0.18 94 1014.6
20260509144007 18 85 6.4 19.3 0.15 2.77 0.15 94 1014.6
20260509143508 18 84 8.0 17.7 0.15 2.77 0.15 94 1014.6
20260509143024 18 65 3.2 12.9 0.13 2.74 0.13 94 1014.6
20260509142503 18 86 1.6 9.7 0.10 2.72 0.10 94 1014.5
20260509142003 18 96 3.2 16.1 0.08 2.67 0.08 94 1014.5
20260509141512 18 49 0.0 16.1 0.08 2.67 0.08 94 1014.7
20260509141002 18 24 6.4 24.1 0.08 2.67 0.08 93 1014.6
20260509140502 18 53 8.0 24.1 0.03 2.64 0.03 93 1014.5
20260509140033 18 35 9.7 24.1 0.03 2.64 0.03 94 1014.5
20260509135507 18 35 3.2 14.5 0.00 2.62 0.00 95 1014.5
20260509135007 18 306 4.8 14.5 0.00 2.62 0.00 95 1014.3
20260509134523 18 53 9.7 14.5 0.00 2.62 0.00 96 1014.1
20260509134004 18 148 4.8 9.7 0.00 2.62 0.00 95 1014.0
20260509133516 18 224 3.2 9.7 0.00 2.62 0.00 96 1014.1
20260509133026 18 133 4.8 14.5 0.00 2.62 0.00 96 1014.0
20260509132508 18 93 6.4 14.5 0.00 2.62 0.00 96 1014.1
20260509132011 18 55 4.8 9.7 0.00 2.62 0.00 96 1014.2
20260509131509 18 42 4.8 9.7 0.00 2.62 0.00 96 1014.2
20260509131005 18 55 4.8 8.0 0.00 2.62 0.00 96 1014.1
20260509130503 18 56 0.0 12.9 0.00 2.62 0.00 96 1014.5
20260509130023 18 22 3.2 12.9 0.00 2.62 0.00 96 1014.4
20260509125504 18 17 3.2 8.0 0.00 2.62 0.00 96 1014.2
20260509125007 18 55 4.8 8.0 0.00 2.62 0.00 96 1014.0
20260509124524 18 49 4.8 11.3 0.00 2.62 0.00 97 1013.8
20260509124010 18 28 3.2 11.3 0.00 2.62 0.00 96 1013.8
20260509123507 18 333 4.8 9.7 0.00 2.62 0.00 97 1013.6
20260509123024 18 26 6.4 12.9 0.00 2.62 0.00 97 1013.0
20260509122509 18 77 8.0 12.9 0.00 2.62 0.00 97 1012.5
20260509122003 17 102 8.0 9.7 0.00 2.62 0.00 97 1012.5
20260509121508 17 76 1.6 6.4 0.00 2.62 0.00 97 1012.5
20260509121003 17 48 1.6 6.4 0.00 2.62 0.00 97 1012.8
20260509120504 17 140 1.6 9.7 0.00 2.62 0.00 97 1012.9
20260509120014 17 128 4.8 9.7 0.00 2.62 0.00 97 1012.3
20260509115503 17 100 4.8 6.4 0.00 2.62 0.00 97 1012.2
20260509115003 17 165 1.6 4.8 0.00 2.62 0.00 97 1012.2
20260509114520 17 263 1.6 4.8 0.00 2.62 0.00 97 1012.4
20260509114008 17 261 1.6 3.2 0.00 2.62 0.00 97 1012.4
20260509113508 17 261 1.6 3.2 0.00 2.62 0.00 97 1012.3
20260509113024 17 257 1.6 3.2 0.00 2.62 0.00 97 1012.1
20260509112503 17 257 0.0 6.4 0.00 2.62 0.00 97 1012.0
20260509112003 17 257 1.6 6.4 0.00 2.62 0.00 97 1011.9
20260509111507 17 36 3.2 6.4 0.00 2.62 0.00 97 1011.9
20260509111003 17 342 3.2 4.8 0.00 2.62 0.00 97 1011.7
20260509110503 17 97 0.0 9.7 0.00 2.62 0.00 97 1011.3
20260509110017 17 151 1.6 9.7 0.00 2.62 0.00 97 1011.1
20260509105503 17 148 6.4 9.7 0.00 2.62 0.00 97 1010.8
20260509105003 17 113 4.8 6.4 0.00 2.62 0.00 97 1011.0
20260509104515 17 142 3.2 6.4 0.00 2.62 0.00 97 1011.2
20260509104007 17 148 4.8 6.4 0.00 2.62 0.00 97 1011.1
20260509103510 17 111 3.2 4.8 0.00 2.62 0.00 97 1010.9
20260509103022 17 125 1.6 3.2 0.00 2.62 0.00 97 1011.1
20260509102508 17 112 0.0 0.0 0.00 2.62 0.00 97 1011.2
20260509102007 17 111 0.0 0.0 0.00 2.62 0.00 97 1011.5
20260509101506 17 111 0.0 0.0 0.00 2.62 0.00 97 1011.7
20260509101004 17 128 0.0 3.2 0.00 2.62 0.00 97 1011.7
20260509100504 17 186 1.6 3.2 0.00 2.62 0.00 97 1012.1
20260509100018 17 263 0.0 4.8 0.00 2.62 0.00 97 1012.5
20260509095504 17 319 3.2 4.8 0.00 2.62 0.00 96 1012.7
20260509095005 17 306 0.0 1.6 0.00 2.62 0.00 97 1012.6
20260509094515 17 296 0.0 0.0 0.00 2.62 0.00 97 1012.4
20260509094004 17 309 0.0 0.0 0.00 2.62 0.00 97 1012.4
20260509093508 17 9 0.0 0.0 0.00 2.62 0.00 97 1012.2
20260509093023 17 5 0.0 0.0 0.00 2.62 0.00 97 1012.1
20260509092511 17 46 0.0 0.0 0.00 2.62 0.00 97 1012.1
20260509091527 17 67 0.0 0.0 0.00 2.62 0.00 97 1011.9
20260509091014 17 67 0.0 0.0 0.00 2.62 0.00 97 1012.0
20260509090504 17 67 0.0 0.0 0.00 2.62 0.00 97 1011.9
20260509090010 17 67 0.0 0.0 0.00 2.62 0.00 96 1011.8
20260509085503 17 67 0.0 0.0 0.00 2.62 0.00 96 1011.7
20260509085003 17 67 0.0 0.0 0.00 2.62 0.00 96 1011.7
20260509084526 17 279 0.0 0.0 0.00 2.62 0.00 96 1011.9
20260509084005 17 279 0.0 0.0 0.00 2.62 0.00 96 1012.1
20260509083506 17 279 0.0 0.0 0.00 2.62 0.00 96 1012.4
20260509083033 17 279 0.0 0.0 0.00 2.62 0.00 96 1012.3
20260509082511 17 279 0.0 0.0 0.00 2.62 0.00 96 1012.1
20260509082006 17 279 0.0 0.0 0.00 2.62 0.00 96 1012.1
20260509081529 17 279 0.0 0.0 0.00 2.62 0.00 96 1011.9
20260509081008 17 279 0.0 0.0 0.00 2.62 0.00 96 1012.0
20260509080507 17 279 0.0 0.0 0.00 2.62 0.00 96 1012.1
20260509080035 17 279 0.0 0.0 0.00 2.62 0.00 96 1012.0
20260509075502 17 279 0.0 0.0 0.00 2.62 0.00 96 1012.0
20260509075004 17 279 0.0 0.0 0.00 2.62 0.00 96 1012.0
20260509074513 17 279 0.0 0.0 0.00 2.62 0.00 96 1012.0
20260509074003 17 279 0.0 0.0 0.00 2.62 0.00 96 1012.2
20260509073503 17 279 0.0 0.0 0.00 2.62 0.00 96 1012.3
20260509073018 17 279 0.0 0.0 0.00 2.62 0.00 96 1012.7
20260509072505 17 232 0.0 0.0 0.00 2.62 0.00 96 1012.3
20260509072006 17 232 0.0 0.0 0.00 2.62 0.00 96 1012.1
20260509071524 17 232 0.0 0.0 0.00 2.62 0.00 96 1011.9
20260509071008 17 232 0.0 0.0 0.00 2.62 0.00 96 1011.9
20260509070506 17 232 0.0 0.0 0.00 2.62 0.00 96 1012.2
20260509070026 17 232 0.0 0.0 0.00 2.62 0.00 96 1012.4
20260509065507 17 232 0.0 0.0 0.00 2.62 0.00 96 1012.3
20260509065007 17 232 0.0 0.0 0.00 2.62 0.00 96 1012.1
20260509064516 17 232 0.0 0.0 0.00 2.62 0.00 96 1012.3
20260509064003 17 232 0.0 0.0 0.00 2.62 0.00 96 1012.3
20260509063505 17 232 0.0 0.0 0.00 2.62 0.00 96 1012.4
20260509063015 17 275 0.0 0.0 0.00 2.62 0.00 96 1012.6
20260509062507 17 275 0.0 3.2 0.00 2.62 0.00 96 1012.7
20260509062007 17 320 0.0 4.8 0.00 2.62 0.00 95 1012.8
20260509061522 17 342 1.6 6.4 0.00 2.62 0.00 95 1012.7
20260509061005 17 283 0.0 6.4 0.00 2.62 0.00 95 1012.7
20260509060509 17 272 3.2 6.4 0.00 2.62 0.00 95 1012.9
20260509060025 17 304 1.6 6.4 0.00 2.62 0.00 95 1012.8
20260509055510 18 318 1.6 6.4 0.00 2.62 0.00 95 1012.6
20260509055008 18 325 1.6 6.4 0.00 2.62 0.00 95 1012.3
20260509054527 18 40 3.2 6.4 0.00 2.62 0.00 95 1012.2
20260509054008 18 308 3.2 8.0 0.00 2.62 0.00 95 1012.6
20260509053504 18 305 1.6 20.9 0.00 2.62 0.00 95 1012.3
20260509053016 18 346 9.7 20.9 0.00 2.62 0.00 95 1012.4
20260509052502 18 360 9.7 17.7 0.00 2.62 0.00 94 1012.1
20260509052008 18 306 1.6 20.9 0.03 2.62 0.00 95 1012.0
20260509051520 18 172 11.3 27.4 0.03 2.62 0.00 95 1011.3
20260509051007 18 135 11.3 27.4 0.03 2.62 0.00 95 1010.7
20260509050506 18 179 12.9 24.1 0.03 2.62 0.00 95 1010.7
20260509050035 18 178 12.9 17.7 0.03 2.62 0.00 95 1011.3
20260509045506 18 163 9.7 16.1 0.03 2.62 2.62 95 1012.1
20260509045007 18 149 9.7 16.1 0.03 2.62 2.62 95 1012.2
20260509044527 18 192 3.2 19.3 0.03 2.62 2.62 95 1012.3
20260509044007 18 173 9.7 19.3 0.03 2.62 2.62 95 1012.0
20260509043506 17 162 14.5 19.3 0.03 2.62 2.62 95 1011.8
20260509043027 17 162 11.3 22.5 0.03 2.62 2.62 95 1012.2
20260509042503 17 178 11.3 24.1 0.03 2.62 2.62 95 1012.3
20260509042007 17 184 12.9 24.1 0.00 2.59 2.59 95 1012.1
20260509041518 17 138 14.5 24.1 0.00 2.59 2.59 95 1012.1
20260509041004 17 142 9.7 24.1 0.00 2.59 2.59 95 1012.5
20260509040507 17 121 8.0 24.1 0.00 2.59 2.59 96 1013.0
20260509040023 17 119 11.3 24.1 0.00 2.59 2.59 96 1012.9
20260509035510 17 194 12.9 24.1 0.00 2.59 2.59 96 1013.4
20260509035007 17 167 11.3 24.1 0.00 2.59 2.59 96 1013.2
20260509034526 17 174 16.1 24.1 0.00 2.59 2.59 96 1013.2
20260509034010 17 170 12.9 19.3 0.00 2.59 2.59 96 1013.4
20260509033510 17 153 11.3 14.5 0.00 2.59 2.59 96 1013.8
20260509033028 17 150 3.2 4.8 0.00 2.59 2.59 96 1014.0
20260509032511 17 317 0.0 3.2 0.00 2.59 2.59 96 1014.3
20260509032005 17 331 0.0 4.8 0.00 2.59 2.59 96 1014.4
20260509031522 17 331 1.6 4.8 0.00 2.59 2.59 96 1014.2
20260509031003 17 165 0.0 6.4 0.00 2.59 2.59 96 1014.4
20260509030508 18 180 3.2 6.4 0.00 2.59 2.59 96 1015.0
20260509030032 18 159 4.8 6.4 0.00 2.59 2.59 96 1015.2
20260509025507 17 211 0.0 1.6 0.00 2.59 2.59 96 1015.1
20260509025007 17 211 0.0 1.6 0.00 2.59 2.59 96 1014.7
20260509024525 17 273 0.0 0.0 0.00 2.59 2.59 96 1014.6
20260509024006 17 273 0.0 6.4 0.00 2.59 2.59 96 1014.6
20260509023503 17 273 0.0 6.4 0.00 2.59 2.59 96 1014.5
20260509023015 17 344 3.2 6.4 0.00 2.59 2.59 96 1014.2
20260509022504 17 331 3.2 4.8 0.00 2.59 2.59 96 1013.5
20260509022004 17 348 3.2 8.0 0.00 2.59 2.59 96 1013.5
20260509021514 18 181 1.6 9.7 0.00 2.59 2.59 96 1013.8
20260509021003 17 143 6.4 9.7 0.00 2.59 2.59 96 1013.9
20260509020508 17 99 3.2 9.7 0.00 2.59 2.59 96 1013.5
20260509020020 17 102 3.2 12.9 0.00 2.59 2.59 96 1013.6
20260509015505 17 128 6.4 12.9 0.00 2.59 2.59 96 1013.5
20260509015005 17 134 6.4 11.3 0.00 2.59 2.59 96 1013.5
20260509014523 17 122 6.4 11.3 0.00 2.59 2.59 96 1013.6
20260509014007 17 127 4.8 11.3 0.00 2.59 2.59 96 1013.8
20260509013508 18 106 6.4 11.3 0.00 2.59 2.59 96 1013.9
20260509013026 18 117 6.4 9.7 0.00 2.59 2.59 96 1014.3
20260509012504 18 122 4.8 6.4 0.00 2.59 2.59 96 1014.3
20260509012004 18 122 3.2 4.8 0.00 2.59 2.59 96 1014.5
20260509011512 18 100 1.6 3.2 0.00 2.59 2.59 96 1014.7
20260509011005 18 124 0.0 1.6 0.00 2.59 2.59 96 1015.0
20260509010503 18 124 0.0 3.2 0.00 2.59 2.59 96 1015.1
20260509010019 18 124 1.6 3.2 0.00 2.59 2.59 96 1015.0
20260509005504 18 130 1.6 3.2 0.00 2.59 2.59 96 1015.0
20260509005006 18 130 3.2 3.2 0.00 2.59 2.59 96 1014.9
20260509004534 18 87 0.0 0.0 0.00 2.59 2.59 96 1014.9
20260509004005 18 87 0.0 3.2 0.00 2.59 2.59 96 1015.0
20260509003506 18 76 0.0 3.2 0.00 2.59 2.59 96 1015.2
20260509003025 18 9 0.0 3.2 0.00 2.59 2.59 96 1015.2
20260509002511 18 78 0.0 3.2 0.00 2.59 2.59 96 1015.3
20260509002006 18 25 1.6 4.8 0.00 2.59 2.59 96 1015.3
20260509001510 18 331 0.0 4.8 0.00 2.59 2.59 96 1015.4
20260509001005 18 10 1.6 4.8 0.00 2.59 2.59 96 1015.2
20260509000502 18 22 0.0 4.8 0.00 2.59 2.59 96 1015.0
20260509000024 18 86 3.2 4.8 0.00 2.59 2.59 96 1014.9
20260508235503 18 75 1.6 4.8 0.00 2.59 2.59 96 1015.1
20260508235006 18 12 0.0 3.2 0.00 2.59 2.59 96 1015.0
20260508234521 18 33 0.0 6.4 0.00 2.59 2.59 96 1015.1
20260508234005 18 39 3.2 6.4 0.00 2.59 2.59 96 1015.0
20260508233510 18 44 0.0 4.8 0.03 2.59 2.59 96 1015.2
20260508233024 18 38 0.0 6.4 0.03 2.59 2.59 96 1015.4
20260508232505 18 126 1.6 8.0 0.05 2.59 2.59 96 1015.5
20260508232008 18 327 3.2 8.0 0.10 2.59 2.59 96 1015.4
20260508231524 18 306 4.8 8.0 0.15 2.59 2.59 96 1015.4
20260508231008 18 19 3.2 6.4 0.15 2.59 2.59 96 1015.3
20260508230502 18 9 3.2 6.4 0.18 2.59 2.59 96 1015.2
20260508230012 18 99 4.8 6.4 0.18 2.59 2.59 96 1015.0
20260508225503 18 98 1.6 4.8 0.18 2.59 2.59 96 1015.3
20260508225008 18 56 1.6 6.4 0.18 2.59 2.59 96 1015.2
20260508224517 18 9 1.6 6.4 0.18 2.59 2.59 96 1015.3
20260508224007 18 5 1.6 12.9 0.18 2.59 2.59 96 1015.5
20260508223507 18 309 3.2 12.9 0.18 2.57 2.57 96 1015.4
20260508223031 18 300 8.0 12.9 0.18 2.57 2.57 96 1015.5
20260508222507 18 336 3.2 6.4 0.15 2.54 2.54 95 1014.8
20260508222008 18 163 6.4 6.4 0.15 2.49 2.49 95 1014.5
20260508221525 18 147 0.0 4.8 0.43 2.44 2.44 95 1014.2
20260508221008 18 159 3.2 4.8 1.09 2.44 2.44 95 1014.2
20260508220508 18 206 1.6 6.4 1.55 2.41 2.41 95 1014.1
20260508220026 18 89 4.8 8.0 1.75 2.41 2.41 95 1013.6
20260508215503 18 77 4.8 11.3 1.78 2.41 2.41 95 1013.5
20260508215004 18 90 4.8 11.3 1.80 2.41 2.41 95 1013.6
20260508214518 18 82 4.8 11.3 1.83 2.41 2.41 95 1013.6
20260508214006 18 64 3.2 8.0 1.88 2.41 2.41 95 1013.7
20260508213505 18 43 1.6 12.9 1.93 2.39 2.39 95 1013.9
20260508213024 18 323 4.8 17.7 2.08 2.39 2.39 95 1014.0
20260508212509 18 20 4.8 17.7 2.34 2.39 2.39 95 1013.9
20260508212009 18 41 6.4 19.3 2.29 2.34 2.34 94 1013.8
20260508211524 19 59 11.3 19.3 1.96 2.01 2.01 94 1014.1
20260508211006 19 9 6.4 17.7 1.32 1.32 1.32 94 1015.6
20260508210507 19 248 6.4 17.7 0.86 0.86 0.86 94 1016.0
20260508210029 20 298 6.4 17.7 0.66 0.66 0.66 93 1014.7
20260508205508 20 360 12.9 17.7 0.64 0.64 0.64 94 1013.9
20260508205002 20 331 6.4 14.5 0.61 0.61 0.61 94 1013.8
20260508204513 20 5 4.8 14.5 0.58 0.58 0.58 94 1013.7
20260508204006 20 9 3.2 16.1 0.53 0.53 0.53 93 1013.8
20260508203506 21 9 8.0 14.5 0.46 0.46 0.46 93 1014.0
20260508203021 21 301 8.0 14.5 0.30 0.30 0.30 92 1014.2
20260508202506 21 263 4.8 9.7 0.05 0.05 0.05 91 1013.9
20260508202006 21 311 3.2 4.8 0.05 0.05 0.05 90 1013.2
20260508201526 22 344 0.0 1.6 0.05 0.05 0.05 89 1012.9
20260508201012 22 257 0.0 6.4 0.03 0.03 0.03 88 1012.9
20260508200506 22 117 1.6 6.4 0.00 0.00 0.00 87 1012.5
20260508200031 22 86 3.2 8.0 0.00 0.00 0.00 86 1012.5
20260508195506 22 76 6.4 8.0 0.00 0.00 0.00 86 1012.7
20260508195007 22 105 3.2 4.8 0.00 0.00 0.00 85 1013.0
20260508194552 22 78 3.2 4.8 0.00 0.00 0.00 85 1013.2
20260508194005 22 58 3.2 4.8 0.00 0.00 0.00 84 1013.3
20260508193506 22 78 0.0 3.2 0.00 0.00 0.00 84 1013.6
20260508193021 22 73 0.0 3.2 0.00 0.00 0.00 84 1013.8
20260508192506 22 79 0.0 3.2 0.00 0.00 0.00 84 1013.9
20260508192007 22 35 0.0 3.2 0.00 0.00 0.00 84 1013.9
20260508191523 22 121 3.2 3.2 0.00 0.00 0.00 84 1013.8
20260508191007 22 111 1.6 3.2 0.00 0.00 0.00 84 1013.9
20260508190510 22 73 1.6 3.2 0.00 0.00 0.00 84 1013.9
20260508190026 22 121 0.0 0.0 0.00 0.00 0.00 83 1014.1
20260508185508 22 138 0.0 0.0 0.00 0.00 0.00 82 1014.1
20260508185011 22 152 0.0 0.0 0.00 0.00 0.00 83 1014.2
20260508184532 22 131 0.0 4.8 0.00 0.00 0.00 83 1014.1
20260508184012 22 175 0.0 6.4 0.00 0.03 0.00 83 1014.2